DW7214 Weather Reports


time (UTC)temp
F
wind
direction
speed
knots
gust
knots
rain 1hr
in
rain 24hr
in
rain mn
in
humidity
%
barometer
mb
20200922214809 69 169 0.0 0.0 0.00 0.00 0.00 48 1012.8
20200922214324 69 169 0.9 0.0 0.00 0.00 0.00 48 1012.8
20200922213814 69 169 1.7 0.0 0.00 0.00 0.00 48 1012.9
20200922213327 69 165 2.6 0.0 0.00 0.00 0.00 48 1012.9
20200922212818 70 198 1.7 0.0 0.00 0.00 0.00 47 1012.9
20200922212320 71 209 0.0 0.0 0.00 0.00 0.00 46 1013.4
20200922211827 70 355 0.0 0.0 0.00 0.00 0.00 46 1013.3
20200922211323 69 355 0.9 0.0 0.00 0.00 0.00 46 1013.3
20200922210838 69 355 1.7 0.0 0.00 0.00 0.00 46 1013.2
20200922210319 69 360 2.6 0.0 0.00 0.00 0.00 46 1013.2
20200922205813 69 60 1.7 0.0 0.00 0.00 0.00 46 1013.2
20200922205323 68 203 0.9 0.0 0.00 0.00 0.00 46 1013.4
20200922204815 68 203 0.9 0.0 0.00 0.00 0.00 47 1013.4
20200922204311 68 203 2.6 0.0 0.00 0.00 0.00 47 1013.4
20200922203823 69 203 3.5 0.0 0.00 0.00 0.00 46 1013.5
20200922203316 70 224 1.7 0.0 0.00 0.00 0.00 45 1013.5
20200922202808 69 175 0.9 0.0 0.00 0.00 0.00 44 1013.5
20200922202321 68 176 0.9 0.0 0.00 0.00 0.00 43 1013.4
20200922201812 67 172 0.9 0.0 0.00 0.00 0.00 43 1013.4
20200922201324 67 173 0.9 0.0 0.00 0.00 0.00 43 1013.4
20200922200825 67 173 1.7 0.0 0.00 0.00 0.00 43 1013.6
20200922200326 67 173 3.5 0.0 0.00 0.00 0.00 44 1013.6
20200922195819 68 180 2.6 0.0 0.00 0.00 0.00 42 1013.6
20200922195314 68 204 0.9 0.0 0.00 0.00 0.00 41 1013.9
20200922194826 67 204 1.7 0.0 0.00 0.00 0.00 40 1013.9
20200922194318 67 204 1.7 0.0 0.00 0.00 0.00 41 1013.9
20200922193825 67 203 0.9 0.0 0.00 0.00 0.00 41 1014.1
20200922193321 67 203 0.0 0.0 0.00 0.00 0.00 39 1014.1
20200922192813 66 203 0.9 0.0 0.00 0.00 0.00 35 1014.1
20200922192323 66 204 2.6 0.0 0.00 0.00 0.00 41 1014.3
20200922191813 66 203 1.7 0.0 0.00 0.00 0.00 40 1014.3
20200922191309 67 219 0.9 0.0 0.00 0.00 0.00 39 1014.3
20200922190832 66 203 1.7 0.0 0.00 0.00 0.00 40 1014.5
20200922190328 65 278 3.5 0.0 0.00 0.00 0.00 39 1014.4
20200922185829 65 205 3.5 0.0 0.00 0.00 0.00 39 1014.4
20200922185323 65 173 3.5 0.0 0.00 0.00 0.00 42 1014.5
20200922184811 66 134 2.6 0.0 0.00 0.00 0.00 44 1014.5
20200922184322 66 204 2.6 0.0 0.00 0.00 0.00 43 1014.5
20200922183812 66 205 2.6 0.0 0.00 0.00 0.00 44 1014.4
20200922183328 66 191 1.7 0.0 0.00 0.00 0.00 45 1014.4
20200922182818 67 223 0.9 0.0 0.00 0.00 0.00 45 1014.4
20200922182328 66 225 2.6 0.0 0.00 0.00 0.00 43 1014.9
20200922181833 65 225 4.3 0.0 0.00 0.00 0.00 44 1014.8
20200922181318 65 201 3.5 0.0 0.00 0.00 0.00 45 1014.8
20200922180840 65 221 1.7 0.0 0.00 0.00 0.00 40 1015.1
20200922180328 65 221 1.7 0.0 0.00 0.00 0.00 24 1015.1
20200922175812 65 213 3.5 0.0 0.00 0.00 0.00 22 1015.1
20200922175324 64 203 3.5 0.0 0.00 0.00 0.00 29 1014.6
20200922174816 65 210 2.6 0.0 0.00 0.00 0.00 25 1014.6
20200922174313 65 215 1.7 0.0 0.00 0.00 0.00 13 1014.6
20200922173822 65 181 0.9 0.0 0.00 0.00 0.00 1 1014.8
20200922173320 65 181 0.0 0.0 0.00 0.00 0.00 100 1014.8
20200922172810 64 181 0.0 0.0 0.00 0.00 0.00 100 1014.8
20200922172322 63 181 0.0 0.0 0.00 0.00 0.00 100 1014.7
20200922171815 64 181 0.0 0.0 0.00 0.00 0.00 100 1014.8
20200922171333 64 181 0.9 0.0 0.00 0.00 0.00 100 1014.8
20200922170825 64 181 0.9 0.0 0.00 0.00 0.00 100 1014.7
20200922170313 64 145 0.0 0.0 0.00 0.00 0.00 100 1014.7
20200922165822 64 143 0.0 0.0 0.00 0.00 0.00 100 1014.7
20200922165319 64 213 0.0 0.0 0.00 0.00 0.00 100 1014.6
20200922164808 63 213 0.0 0.0 0.00 0.00 0.00 100 1014.6
20200922164322 62 213 0.0 0.0 0.00 0.00 0.00 100 1014.6
20200922163828 61 213 0.9 0.0 0.00 0.00 0.00 100 1014.6
20200922163324 60 213 0.9 0.0 0.00 0.00 0.00 100 1014.6
20200922162816 59 213 1.7 0.0 0.00 0.00 0.00 100 1014.6
20200922162310 59 200 1.7 0.0 0.00 0.00 0.00 100 1014.8
20200922161820 58 200 1.7 0.0 0.00 0.00 0.00 100 1014.7
20200922161321 57 200 0.9 0.0 0.00 0.00 0.00 100 1014.7
20200922160834 57 200 0.9 0.0 0.00 0.00 0.00 100 1014.5
20200922160318 57 200 0.0 0.0 0.00 0.00 0.00 100 1014.5
20200922155815 57 200 0.0 0.0 0.00 0.00 0.00 100 1014.5
20200922155323 57 200 0.0 0.0 0.00 0.00 0.00 100 1014.6
20200922154816 58 200 0.0 0.0 0.00 0.00 0.00 100 1014.6
20200922154327 58 200 0.9 0.0 0.00 0.00 0.00 100 1014.6
20200922153818 58 200 2.6 0.0 0.00 0.00 0.00 100 1014.6
20200922153310 58 200 2.6 0.0 0.00 0.00 0.00 100 1014.6
20200922152823 58 171 2.6 0.0 0.00 0.00 0.00 100 1014.6
20200922152319 58 175 3.5 0.0 0.00 0.00 0.00 100 1014.6
20200922151810 58 175 3.5 0.0 0.00 0.00 0.00 100 1014.6
20200922151326 58 221 3.5 0.0 0.00 0.00 0.00 100 1014.6
20200922150843 58 219 2.6 0.0 0.00 0.00 0.00 100 1014.6
20200922150324 58 219 1.7 0.0 0.00 0.00 0.00 100 1014.6
20200922145815 58 219 2.6 0.0 0.00 0.00 0.00 100 1014.6
20200922145326 58 219 1.7 0.0 0.00 0.00 0.00 100 1014.5
20200922144818 58 219 1.7 0.0 0.00 0.00 0.00 100 1014.5
20200922144319 57 219 2.6 0.0 0.00 0.00 0.00 100 1014.5
20200922143824 57 219 2.6 0.0 0.00 0.00 0.00 100 1014.5
20200922143319 57 219 1.7 0.0 0.00 0.00 0.00 100 1014.5
20200922142818 57 219 3.5 0.0 0.00 0.00 0.00 100 1014.5
20200922142323 57 219 3.5 0.0 0.00 0.00 0.00 100 1014.4
20200922141822 57 219 3.5 0.0 0.00 0.00 0.00 100 1014.4
20200922141327 57 219 4.3 0.0 0.00 0.00 0.00 100 1014.4
20200922140830 57 219 4.3 0.0 0.00 0.00 0.00 100 1014.5
20200922140308 57 220 4.3 0.0 0.00 0.00 0.00 100 1014.5
20200922135822 57 211 4.3 0.0 0.00 0.00 0.00 100 1014.5
20200922135317 58 213 3.5 0.0 0.00 0.00 0.00 100 1014.5
20200922134809 58 213 3.5 0.0 0.00 0.00 0.00 100 1014.5
20200922134321 58 212 3.5 0.0 0.00 0.00 0.00 100 1014.5
20200922133812 58 212 4.3 0.0 0.00 0.00 0.00 100 1014.3
20200922133309 58 211 3.5 0.0 0.00 0.00 0.00 100 1014.3
20200922132821 58 211 3.5 0.0 0.00 0.00 0.00 100 1014.3
20200922132316 58 211 3.5 0.0 0.00 0.00 0.00 100 1014.3
20200922131825 58 211 3.5 0.0 0.00 0.00 0.00 100 1014.3
20200922131321 58 211 3.5 0.0 0.00 0.00 0.00 100 1014.3
20200922130842 58 211 3.5 0.0 0.00 0.00 0.00 100 1014.2
20200922130324 58 211 3.5 0.0 0.00 0.00 0.00 100 1014.2
20200922125817 58 210 4.3 0.0 0.00 0.00 0.00 100 1014.2
20200922125308 58 211 4.3 0.0 0.00 0.00 0.00 100 1014.1
20200922124820 58 212 4.3 0.0 0.00 0.00 0.00 100 1014.1
20200922124312 58 213 4.3 0.0 0.00 0.00 0.00 100 1014.1
20200922123822 58 215 4.3 0.0 0.00 0.00 0.00 100 1014.1
20200922123319 58 217 4.3 0.0 0.00 0.00 0.00 100 1014.1
20200922122814 58 217 4.3 0.0 0.00 0.00 0.00 100 1014.1
20200922122337 58 211 3.5 0.0 0.00 0.00 0.00 100 1013.8
20200922121820 58 209 3.5 0.0 0.00 0.00 0.00 100 1013.8
20200922121309 58 209 3.5 0.0 0.00 0.00 0.00 100 1013.8
20200922120831 58 221 3.5 0.0 0.00 0.00 0.00 100 1013.7
20200922120312 58 219 5.2 0.0 0.00 0.00 0.00 100 1013.7
20200922115826 58 220 5.2 0.0 0.00 0.00 0.00 100 1013.7
20200922115316 58 213 6.1 0.0 0.00 0.00 0.00 100 1013.8
20200922114808 59 215 6.1 0.0 0.00 0.00 0.00 100 1013.8
20200922114324 59 217 6.1 0.0 0.00 0.00 0.00 100 1013.8
20200922113813 59 213 6.1 0.0 0.00 0.00 0.00 100 1013.6
20200922113310 59 208 6.1 0.0 0.00 0.00 0.00 100 1013.6
20200922112822 59 212 6.1 0.0 0.00 0.00 0.00 100 1013.6
20200922112315 59 210 6.1 0.0 0.00 0.00 0.00 100 1013.5
20200922111827 59 217 6.1 0.0 0.00 0.00 0.00 100 1013.5
20200922111319 59 211 5.2 0.0 0.00 0.00 0.00 100 1013.5
20200922110837 59 209 6.1 0.0 0.00 0.00 0.00 100 1013.4
20200922110318 59 223 6.1 0.0 0.00 0.00 0.00 100 1013.4
20200922105815 59 220 7.0 0.0 0.00 0.00 0.00 100 1013.4
20200922105326 59 213 7.0 0.0 0.00 0.00 0.00 100 1013.4
20200922104817 59 211 7.0 0.0 0.00 0.00 0.00 100 1013.4
20200922104312 59 214 7.0 0.0 0.00 0.00 0.00 100 1013.4
20200922103818 59 207 6.1 0.0 0.00 0.00 0.00 100 1013.5
20200922103311 59 202 7.0 0.0 0.00 0.00 0.00 100 1013.5
20200922102823 59 213 7.0 0.0 0.00 0.00 0.00 100 1013.5
20200922102315 59 211 6.1 0.0 0.00 0.00 0.00 100 1013.4
20200922101827 59 230 6.1 0.0 0.00 0.00 0.00 100 1013.4
20200922101322 59 221 6.1 0.0 0.00 0.00 0.00 100 1013.4
20200922100841 59 213 6.1 0.0 0.00 0.00 0.00 100 1013.3
20200922100327 59 113 4.3 0.0 0.00 0.00 0.00 100 1013.3
20200922095818 59 179 2.6 0.0 0.00 0.00 0.00 100 1013.3
20200922095313 59 182 0.9 0.0 0.00 0.00 0.00 100 1013.2
20200922094822 59 178 0.9 0.0 0.00 0.00 0.00 100 1013.2
20200922094314 59 177 0.0 0.0 0.00 0.00 0.00 100 1013.2
20200922093830 59 173 0.0 0.0 0.00 0.00 0.00 100 1013.0
20200922093317 59 173 0.0 0.0 0.00 0.00 0.00 100 1013.0
20200922092814 59 173 0.0 0.0 0.00 0.00 0.00 100 1013.0
20200922092325 59 173 0.9 0.0 0.00 0.00 0.00 100 1013.0
20200922091825 59 173 0.9 0.0 0.00 0.00 0.00 100 1013.0
20200922091309 59 169 1.7 0.0 0.00 0.00 0.00 100 1013.0
20200922090832 59 167 1.7 0.0 0.00 0.00 0.00 100 1012.9
20200922090313 59 167 3.5 0.0 0.00 0.00 0.00 100 1012.9
20200922085824 59 167 4.3 0.0 0.00 0.00 0.00 100 1012.9
20200922085319 60 168 3.5 0.0 0.00 0.00 0.00 100 1012.9
20200922084808 60 169 4.3 0.0 0.00 0.00 0.00 100 1012.9
20200922084326 60 171 5.2 0.0 0.00 0.00 0.00 100 1012.9
20200922083814 60 217 5.2 0.0 0.00 0.00 0.00 100 1012.9
20200922083327 60 209 5.2 0.0 0.00 0.00 0.00 100 1012.9
20200922082819 60 211 5.2 0.0 0.00 0.00 0.00 100 1012.9
20200922082310 60 216 4.3 0.0 0.00 0.00 0.00 100 1012.8
20200922081827 61 238 3.5 0.0 0.00 0.00 0.00 100 1012.8
20200922081315 61 218 1.7 0.0 0.00 0.00 0.00 100 1012.8
20200922080836 61 183 1.7 0.0 0.00 0.00 0.00 100 1012.8
20200922080320 61 200 1.7 0.0 0.00 0.00 0.00 100 1012.8
20200922075814 61 209 4.3 0.0 0.00 0.00 0.00 100 1012.8
20200922075326 61 214 5.2 0.0 0.00 0.00 0.00 100 1012.9
20200922074820 61 216 6.1 0.0 0.00 0.00 0.00 100 1012.9
20200922074310 62 213 6.1 0.0 0.00 0.00 0.00 100 1012.9
20200922073821 62 213 6.1 0.0 0.00 0.00 0.00 100 1012.8
20200922073315 62 214 6.1 0.0 0.00 0.00 0.00 100 1012.8
20200922072827 62 227 6.1 0.0 0.00 0.00 0.00 100 1012.8
20200922072319 62 228 5.2 0.0 0.00 0.00 0.00 100 1013.0
20200922071815 62 211 4.3 0.0 0.00 0.00 0.00 100 1013.0
20200922071327 62 212 3.5 0.0 0.00 0.00 0.00 100 1013.0
20200922070827 62 169 4.3 0.0 0.00 0.00 0.00 100 1012.9
20200922070311 62 169 4.3 0.0 0.00 0.00 0.00 100 1012.9
20200922065823 62 169 4.3 0.0 0.00 0.00 0.00 100 1012.9
20200922065325 62 203 5.2 0.0 0.00 0.00 0.00 100 1012.9
20200922064807 62 203 6.1 0.0 0.00 0.00 0.00 100 1012.9
20200922064318 62 158 6.1 0.0 0.00 0.00 0.00 100 1012.9
20200922063828 62 158 6.1 0.0 0.00 0.00 0.00 100 1012.7
20200922063319 62 158 6.1 0.0 0.00 0.00 0.00 100 1012.7
20200922062815 62 158 6.1 0.0 0.00 0.00 0.00 100 1012.7
20200922062326 62 158 7.0 0.0 0.00 0.00 0.00 100 1012.6
20200922061816 62 158 6.1 0.0 0.00 0.00 0.00 100 1012.6
20200922061327 62 158 5.2 0.0 0.00 0.00 0.00 100 1012.6
20200922060830 62 158 5.2 0.0 0.00 0.00 0.00 100 1012.5
20200922060308 62 217 6.1 0.0 0.00 0.00 0.00 100 1012.5
20200922055818 62 209 6.1 0.0 0.00 0.00 0.00 100 1012.5
20200922055329 62 211 5.2 0.0 0.00 0.00 0.00 100 1012.4
20200922054819 62 215 5.2 0.0 0.00 0.00 0.00 100 1012.4
20200922054311 62 217 5.2 0.0 0.00 0.00 0.00 100 1012.4
20200922053814 63 210 5.2 0.0 0.00 0.00 0.00 100 1012.4
20200922053326 63 209 5.2 0.0 0.00 0.00 0.00 100 1012.4
20200922052824 63 218 7.0 0.0 0.00 0.00 0.00 100 1012.4
20200922052309 63 209 7.0 0.0 0.00 0.00 0.00 100 1012.5
20200922051820 63 212 7.0 0.0 0.00 0.00 0.00 100 1012.5
20200922051312 63 213 6.1 0.0 0.00 0.00 0.00 100 1012.5
20200922050828 63 215 6.1 0.0 0.00 0.00 0.00 100 1012.4
20200922050310 63 221 5.2 0.0 0.00 0.00 0.00 100 1012.4
20200922045821 63 214 6.1 0.0 0.00 0.00 0.00 100 1012.4
20200922045315 63 211 6.1 0.0 0.00 0.00 0.00 100 1012.4
20200922044827 63 209 6.1 0.0 0.00 0.00 0.00 100 1012.4
20200922044313 63 212 6.1 0.0 0.00 0.00 0.00 100 1012.4
20200922043820 63 218 7.0 0.0 0.00 0.00 0.00 100 1012.4
20200922043310 63 213 7.0 0.0 0.00 0.00 0.00 100 1012.4
20200922042821 63 216 7.0 0.0 0.00 0.00 0.00 100 1012.4
20200922042308 63 217 6.1 0.0 0.00 0.00 0.00 100 1012.5
20200922041818 64 215 6.1 0.0 0.00 0.00 0.00 100 1012.5
20200922041309 64 208 6.1 0.0 0.00 0.00 0.00 100 1012.4
20200922040833 64 219 5.2 0.0 0.00 0.00 0.00 100 1012.2
20200922040315 64 213 4.3 0.0 0.00 0.00 0.00 100 1012.2
20200922035827 64 210 3.5 0.0 0.00 0.00 0.00 1 1012.2
20200922035318 64 216 3.5 0.0 0.00 0.00 0.00 3 1012.0
20200922034816 64 221 3.5 0.0 0.00 0.00 0.00 4 1012.0
20200922034322 64 208 3.5 0.0 0.00 0.00 0.00 5 1012.0
20200922033816 64 211 4.3 0.0 0.00 0.00 0.00 6 1011.9
20200922033326 64 214 4.3 0.0 0.00 0.00 0.00 7 1011.9
20200922032819 64 215 5.2 0.0 0.00 0.00 0.00 9 1011.9
20200922032310 64 212 5.2 0.0 0.00 0.00 0.00 10 1011.9
20200922031827 64 211 5.2 0.0 0.00 0.00 0.00 11 1011.9
20200922031318 64 215 5.2 0.0 0.00 0.00 0.00 12 1011.9
20200922030840 64 213 4.3 0.0 0.00 0.00 0.00 13 1011.8
20200922030326 64 211 4.3 0.0 0.00 0.00 0.00 15 1011.8
20200922025813 64 213 4.3 0.0 0.00 0.00 0.00 17 1011.8
20200922025322 64 217 4.3 0.0 0.00 0.00 0.00 19 1011.6
20200922024811 64 211 5.2 0.0 0.00 0.00 0.00 21 1011.6
20200922024320 64 212 5.2 0.0 0.00 0.00 0.00 24 1011.6
20200922023829 65 213 5.2 0.0 0.00 0.00 0.00 26 1011.6
20200922023321 65 211 5.2 0.0 0.00 0.00 0.00 28 1011.6
20200922022815 65 213 4.3 0.0 0.00 0.00 0.00 30 1011.6
20200922022327 65 215 4.3 0.0 0.00 0.00 0.00 32 1011.6
20200922021815 65 212 5.2 0.0 0.00 0.00 0.00 34 1011.6
20200922021322 65 212 6.1 0.0 0.00 0.00 0.00 35 1011.6
20200922020825 66 211 5.2 0.0 0.00 0.00 0.00 36 1011.7
20200922020325 66 209 4.3 0.0 0.00 0.00 0.00 38 1011.7
20200922015816 66 211 5.2 0.0 0.00 0.00 0.00 39 1011.7
20200922015329 66 208 6.1 0.0 0.00 0.00 0.00 40 1011.7
20200922014818 66 209 7.0 0.0 0.00 0.00 0.00 41 1011.7
20200922014313 66 214 7.0 0.0 0.00 0.00 0.00 42 1011.7
20200922013824 67 207 6.1 0.0 0.00 0.00 0.00 44 1011.5
20200922013319 67 221 6.1 0.0 0.00 0.00 0.00 45 1011.5
20200922012811 67 211 5.2 0.0 0.00 0.00 0.00 45 1011.5
20200922012323 68 209 5.2 0.0 0.00 0.00 0.00 46 1011.4
20200922011816 68 215 6.1 0.0 0.00 0.00 0.00 46 1011.4
20200922011328 68 211 6.1 0.0 0.00 0.00 0.00 47 1011.4
20200922010832 68 205 6.1 0.0 0.00 0.00 0.00 47 1011.3
20200922010309 69 219 6.1 0.0 0.00 0.00 0.00 48 1011.3
20200922005825 69 200 6.1 0.0 0.00 0.00 0.00 48 1011.3
20200922005320 69 191 4.3 0.0 0.00 0.00 0.00 48 1011.2
20200922004809 70 217 4.3 0.0 0.00 0.00 0.00 48 1011.3
20200922004324 70 219 2.6 0.0 0.00 0.00 0.00 48 1011.3
20200922003811 71 215 3.5 0.0 0.00 0.00 0.00 47 1011.3
20200922003327 70 215 4.3 0.0 0.00 0.00 0.00 48 1011.3
20200922002820 70 203 3.5 0.0 0.00 0.00 0.00 48 1011.3
20200922002318 71 212 2.6 0.0 0.00 0.00 0.00 48 1011.2
20200922001823 71 206 3.5 0.0 0.00 0.00 0.00 48 1011.2
20200922001319 71 217 4.3 0.0 0.00 0.00 0.00 48 1011.2
20200922000841 71 208 4.3 0.0 0.00 0.00 0.00 48 1011.2
20200922000328 71 212 5.2 0.0 0.00 0.00 0.00 48 1011.2
20200921235810 72 211 5.2 0.0 0.00 0.00 0.00 48 1011.2
20200921235323 73 221 5.2 0.0 0.00 0.00 0.00 47 1011.2
20200921234816 73 204 2.6 0.0 0.00 0.00 0.00 46 1011.2
20200921234326 73 198 1.7 0.0 0.00 0.00 0.00 46 1011.2
20200921233816 72 198 1.7 0.0 0.00 0.00 0.00 46 1011.2
20200921233310 72 198 2.6 0.0 0.00 0.00 0.00 45 1011.2
20200921232828 72 190 2.6 0.0 0.00 0.00 0.00 45 1011.2
20200921232319 72 204 0.9 0.0 0.00 0.00 0.00 45 1011.3
20200921231810 72 213 0.9 0.0 0.00 0.00 0.00 44 1011.3
20200921231325 72 206 0.9 0.0 0.00 0.00 0.00 44 1011.3
20200921230824 71 206 1.7 0.0 0.00 0.00 0.00 44 1011.3
20200921230327 71 198 0.9 0.0 0.00 0.00 0.00 45 1011.3
20200921225818 71 201 2.6 0.0 0.00 0.00 0.00 45 1011.3
20200921225316 71 202 2.6 0.0 0.00 0.00 0.00 46 1011.2
20200921224825 72 205 0.9 0.0 0.00 0.00 0.00 45 1011.3
20200921224330 72 236 1.7 0.0 0.00 0.00 0.00 45 1011.3
20200921223829 72 236 1.7 0.0 0.00 0.00 0.00 45 1011.3
20200921223322 72 197 0.9 0.0 0.00 0.00 0.00 44 1011.3
20200921222812 71 196 2.6 0.0 0.00 0.00 0.00 44 1011.3
20200921222324 71 196 2.6 0.0 0.00 0.00 0.00 44 1011.3
20200921221813 72 190 1.7 0.0 0.00 0.00 0.00 44 1011.3
20200921221325 72 211 0.0 0.0 0.00 0.00 0.00 43 1011.3
20200921220824 71 211 0.0 0.0 0.00 0.00 0.00 43 1011.4
20200921220309 71 211 0.9 0.0 0.00 0.00 0.00 42 1011.4
20200921215825 71 211 0.0 0.0 0.00 0.00 0.00 42 1011.4
20200921215317 71 210 0.0 0.0 0.00 0.00 0.00 39 1011.6